Wind_Speed
24 24 24 23 21 21 21 22 22 21 21 21 21 22 22 22 23 25 26 27 27 27 27 30 32 34 37 38 40 41 43 44 45 46 45 44 45 46 45 46 46 47 47 48
25 25 24 23 22 22 22 23 23 23 22 21 21 22 22 22 23 25 26 27 28 28 28 29 31 33 35 38 39 41 42 43 44 45 45 45 45 45 45 46 46 47 47 48
27 26 25 24 22 22 22 23 23 23 23 23 23 22 22 23 24 25 26 27 29 29 29 30 31 32 34 38 40 41 41 41 42 44 45 46 47 46 47 47 47 48 49 49
27 27 26 24 24 24 24 24 23 23 23 24 25 24 24 24 25 26 27 28 29 30 30 31 32 33 34 35 38 39 41 42 42 43 43 45 46 46 46 48 48 48 48 48
28 27 27 25 25 25 25 23 23 23 23 24 25 25 25 26 26 26 26 27 29 30 30 31 32 33 35 35 36 37 38 40 41 42 43 44 45 46 46 46 47 48 47 47
28 28 28 27 27 26 26 24 24 24 24 24 24 24 24 26 26 27 27 28 29 30 31 31 31 32 33 35 36 36 36 37 39 41 41 42 42 43 44 45 46 46 47 46
28 28 28 27 27 25 24 24 25 25 25 25 25 26 25 25 26 27 28 29 29 30 31 31 31 31 32 33 34 36 36 36 37 38 39 39 39 40 42 43 44 44 44 44
29 29 29 28 26 25 24 25 25 26 26 26 26 27 26 26 26 27 27 27 27 28 30 31 30 30 31 32 33 34 36 37 36 37 37 37 37 38 40 41 41 41 41 42
29 29 29 28 26 26 26 26 26 27 27 27 27 27 26 26 26 26 26 25 26 26 27 29 29 29 30 31 31 32 34 34 35 36 36 36 37 36 37 38 39 40 40 40
29 28 28 28 27 27 27 27 27 27 27 27 27 27 26 25 24 25 25 25 25 25 26 26 27 27 28 29 29 30 31 33 34 35 35 36 36 37 37 37 37 38 39 39
29 29 28 28 27 27 27 27 27 27 27 27 26 25 25 24 24 24 25 24 24 24 24 24 25 25 26 27 27 28 29 31 32 33 34 35 36 37 37 37 37 37 37 38
30 30 29 29 28 28 28 27 27 26 26 26 25 24 25 24 24 24 24 23 23 23 23 23 23 24 25 25 26 26 28 29 30 31 32 34 34 35 35 35 36 36 36 36
31 30 29 29 29 28 28 27 26 25 25 24 24 24 24 24 23 22 22 23 23 23 22 22 22 23 24 24 25 26 27 27 28 29 30 32 33 33 34 35 35 35 35 35
30 29 28 28 28 27 27 27 25 25 24 24 24 24 23 23 23 23 23 23 22 22 22 21 21 21 22 23 24 25 25 26 26 27 28 29 31 32 32 33 34 34 34 35
28 28 27 27 26 26 26 26 26 25 25 24 23 23 23 23 23 22 23 23 22 22 22 21 21 21 21 22 23 23 24 24 25 25 26 27 28 29 31 31 32 33 34 34
28 27 27 27 27 26 26 26 26 26 25 24 24 24 24 23 23 22 22 22 22 22 22 22 22 22 22 22 23 23 23 23 24 24 25 25 26 26 28 29 30 30 31 32
28 27 27 27 27 26 26 26 26 26 25 25 25 25 24 24 24 23 23 22 22 22 22 22 22 22 22 23 23 23 23 23 23 23 24 24 25 25 26 27 28 29 30 31
27 27 27 27 27 27 27 26 26 26 25 25 25 24 24 24 24 24 24 23 23 22 22 22 22 22 22 22 23 23 23 24 24 24 24 24 24 25 25 26 27 28 29 30
28 28 28 28 27 27 27 27 26 26 25 25 24 25 25 24 24 23 23 23 23 22 22 21 21 21 22 22 22 23 24 24 24 25 25 26 26 26 25 26 26 27 27 28
28 28 28 28 28 28 27 27 27 26 26 25 25 25 25 24 24 24 23 23 23 22 22 21 21 21 22 22 22 23 23 24 24 25 26 26 26 26 26 26 26 26 26 27
29 29 29 29 29 28 28 27 27 26 26 25 25 25 25 25 24 24 23 23 22 22 21 21 21 21 21 21 22 22 22 23 24 25 25 26 26 26 26 26 26 27 26 26
29 29 29 29 29 28 28 27 27 26 25 25 25 25 25 25 25 24 23 23 23 22 22 21 21 21 21 21 21 21 21 22 23 24 25 26 26 27 27 27 27 27 26 26
29 29 29 29 28 28 27 27 26 26 25 25 25 25 25 25 25 24 24 23 23 23 22 22 22 22 21 21 21 21 21 22 22 23 24 25 25 26 26 26 26 26 26 26
29 29 29 29 28 27 27 26 26 26 26 25 25 25 25 25 24 24 24 24 23 23 23 22 22 22 22 22 22 22 22 22 23 23 23 24 24 25 25 25 25 25 25 25
29 29 28 28 27 27 26 26 26 26 26 26 26 26 25 24 24 24 24 24 24 24 23 23 22 22 22 22 22 22 22 22 22 22 22 22 23 23 24 24 24 24 24 25
28 28 28 27 26 26 26 26 26 26 26 26 25 25 24 24 24 24 24 24 24 24 23 23 22 22 22 22 22 22 22 22 22 22 22 22 22 22 23 23 24 24 24 24
28 27 27 26 26 26 26 26 25 25 25 24 24 24 24 24 24 24 24 24 23 23 23 22 23 23 23 23 23 22 22 23 23 23 23 23 23 23 23 23 24 24 24 25
Wind_Direction
319 316 312 309 305 302 299 296 294 295 296 292 288 286 282 277 272 271 269 266 264 264 261 259 257 254 251 249 248 248 249 249 248 248 249 250 251 252 252 252 250 250 249 249
318 316 311 308 305 302 300 297 295 294 295 294 290 287 282 278 274 273 272 270 267 265 264 263 260 256 254 250 249 249 249 250 250 249 249 250 251 252 252 251 251 250 250 250
317 315 310 308 305 302 301 298 296 293 293 293 292 289 284 281 277 274 273 271 270 267 266 266 263 260 256 253 251 251 251 250 250 251 251 251 252 253 253 253 253 251 250 250
317 315 311 308 304 302 299 297 295 292 291 291 292 290 287 285 283 279 276 273 272 270 268 268 266 264 260 256 253 252 252 252 252 252 251 251 252 253 254 253 252 251 251 250
317 315 312 308 305 302 301 298 295 294 291 291 291 290 288 288 286 284 281 277 274 272 270 269 268 266 263 260 257 254 253 253 254 253 253 253 253 253 253 253 252 251 249 249
314 313 311 312 308 303 300 298 296 295 295 293 293 293 291 289 287 286 283 279 276 274 273 271 270 268 264 260 258 257 256 256 255 255 255 254 254 254 253 253 253 253 252 251
312 310 310 311 309 306 301 298 297 297 296 295 293 294 294 292 290 288 287 283 278 276 274 272 270 268 264 261 260 259 259 258 257 256 255 255 255 254 253 253 253 253 253 252
311 311 311 310 308 304 302 298 297 297 297 296 295 294 293 293 292 291 289 287 283 278 276 273 270 268 265 263 261 260 259 258 258 256 255 254 253 253 253 253 252 252 252 252
310 310 309 308 306 303 301 300 299 299 298 297 295 294 292 292 292 291 290 289 288 283 278 275 271 268 266 265 264 262 260 258 257 256 255 255 255 254 253 252 252 252 252 251
308 309 308 306 305 303 301 300 300 300 300 299 297 294 293 293 292 290 289 289 287 285 281 278 274 269 267 266 264 263 261 259 257 256 256 256 255 255 255 255 254 253 253 252
306 307 306 306 305 303 302 300 299 299 300 299 298 297 296 295 294 293 291 288 286 285 283 281 277 272 269 266 264 263 261 260 258 257 257 257 256 255 255 255 254 254 253 253
306 306 305 305 304 302 301 300 299 298 298 298 298 297 298 297 296 294 291 288 286 285 284 282 278 274 271 269 266 264 262 262 260 259 258 257 256 254 253 253 253 253 253 253
306 305 305 305 304 302 301 300 300 298 297 296 297 297 298 297 296 295 293 292 289 286 284 281 279 275 272 270 268 266 264 263 261 260 259 257 256 255 254 254 254 252 252 253
306 306 306 306 305 303 301 301 301 300 299 297 296 296 297 298 297 295 294 292 290 286 283 280 278 276 273 271 270 268 266 265 263 260 259 257 256 255 255 254 253 253 252 251
307 306 306 307 306 304 302 301 300 300 300 298 297 296 296 297 296 295 294 292 289 286 283 279 277 276 275 271 269 268 266 265 264 262 260 257 257 256 254 254 253 252 252 251
307 306 307 307 306 305 304 302 300 298 298 298 297 296 297 297 296 295 294 292 289 286 283 280 278 277 276 274 272 269 267 265 264 263 261 259 258 258 256 254 253 253 252 252
306 306 306 306 305 304 303 301 299 297 296 296 295 296 297 297 296 295 293 292 289 286 284 283 280 278 277 275 272 269 267 265 263 263 262 261 259 260 258 256 255 255 255 254
306 306 306 306 304 304 302 301 299 298 297 295 295 295 296 296 295 294 294 292 289 287 286 285 284 282 278 276 272 269 267 265 263 262 262 261 261 262 262 259 257 257 257 256
306 306 306 305 305 304 302 300 298 298 297 296 295 295 295 295 295 295 294 292 289 287 286 286 284 282 280 278 275 271 267 265 264 263 262 262 262 262 262 261 259 259 259 258
305 305 305 305 305 304 302 301 299 298 295 294 295 295 295 295 294 294 293 291 290 289 288 287 285 283 281 279 277 274 270 267 265 264 262 262 262 262 263 262 261 261 260 261
305 305 304 303 304 303 302 301 300 299 297 295 294 294 294 294 294 293 292 290 289 288 287 286 286 285 283 281 278 275 272 270 268 266 265 265 264 263 263 263 264 263 262 262
306 306 306 304 303 302 301 300 300 299 297 295 294 294 294 294 294 293 291 289 288 287 286 286 285 284 282 281 279 277 275 273 272 271 269 267 266 264 263 263 263 262 262 262
304 304 304 304 303 302 300 299 299 298 297 296 295 294 294 293 293 292 290 288 286 286 286 285 284 283 281 281 279 277 276 276 275 274 272 269 267 265 264 263 262 261 260 261
303 303 303 303 302 302 300 300 299 298 297 296 296 295 295 293 292 290 289 288 286 286 286 285 284 283 282 280 279 278 276 276 276 275 274 271 268 266 264 262 261 260 259 260
303 303 303 303 302 301 301 300 299 298 297 297 296 294 294 293 292 291 289 288 287 286 285 284 285 284 282 281 280 279 278 277 276 275 274 273 269 266 263 262 261 260 260 261
304 304 304 303 302 302 302 302 301 299 297 296 296 294 293 292 292 291 291 289 287 286 284 283 283 284 283 282 281 280 279 277 277 276 274 272 269 266 264 262 261 260 260 261
304 304 304 304 304 304 304 303 303 301 299 298 296 295 293 292 292 292 291 290 288 286 284 283 283 283 282 282 281 281 279 278 276 275 273 271 269 267 265 263 262 261 262 263
Height
5606 5602 5598 5595 5592 5588 5585 5583 5581 5579 5576 5574 5571 5569 5567 5566 5565 5564 5563 5563 5562 5562 5562 5563 5564 5565 5567 5569 5572 5574 5577 5579 5582 5584 5587 5589 5591 5593 5596 5598 5600 5602 5605 5608
5601 5597 5593 5590 5587 5583 5580 5577 5575 5573 5571 5568 5566 5563 5561 5560 5558 5557 5556 5555 5555 5555 5554 5554 5555 5556 5557 5559 5561 5563 5565 5568 5570 5572 5574 5577 5578 5580 5582 5585 5587 5589 5592 5595
5595 5591 5587 5584 5582 5578 5575 5572 5569 5567 5565 5562 5560 5557 5555 5554 5552 5550 5549 5548 5547 5546 5546 5546 5546 5546 5547 5548 5550 5552 5554 5556 5558 5560 5562 5564 5566 5568 5569 5571 5573 5576 5578 5581
5589 5586 5581 5581 5575 5572 5568 5566 5563 5560 5558 5555 5553 5551 5548 5546 5545 5543 5541 5540 5539 5538 5538 5537 5537 5537 5537 5538 5539 5541 5542 5544 5546 5548 5550 5552 5553 5555 5556 5558 5560 5563 5565 5568
5582 5578 5575 5573 5569 5565 5561 5559 5557 5554 5551 5548 5546 5544 5542 5539 5537 5535 5533 5532 5531 5529 5529 5528 5528 5527 5527 5527 5529 5530 5532 5533 5535 5537 5538 5539 5541 5542 5543 5545 5547 5549 5552 5555
5575 5571 5568 5567 5562 5558 5555 5553 5550 5547 5544 5541 5538 5537 5535 5532 5529 5527 5525 5523 5522 5521 5519 5518 5518 5517 5517 5517 5518 5520 5521 5522 5524 5525 5526 5527 5528 5530 5531 5533 5535 5537 5539 5542
5569 5564 5561 5559 5555 5551 5549 5547 5542 5539 5536 5534 5531 5529 5527 5524 5521 5519 5517 5514 5513 5511 5510 5509 5508 5507 5507 5507 5508 5509 5510 5511 5512 5513 5515 5516 5517 5518 5519 5521 5523 5525 5527 5529
5562 5558 5557 5551 5547 5545 5542 5538 5535 5532 5529 5527 5524 5521 5519 5516 5513 5510 5508 5505 5503 5502 5500 5499 5498 5497 5497 5498 5498 5499 5500 5501 5502 5503 5504 5505 5506 5507 5508 5510 5512 5513 5515 5517
5556 5554 5548 5544 5540 5537 5534 5531 5528 5525 5522 5519 5516 5514 5511 5508 5505 5502 5500 5497 5495 5493 5491 5490 5489 5488 5488 5488 5488 5488 5489 5490 5491 5492 5493 5494 5495 5496 5497 5499 5500 5502 5504 5506
5548 5545 5541 5536 5532 5529 5526 5523 5520 5517 5514 5511 5508 5506 5503 5500 5497 5495 5492 5489 5487 5485 5483 5481 5479 5479 5478 5478 5478 5479 5479 5480 5480 5481 5482 5483 5484 5485 5487 5488 5490 5491 5493 5495
5540 5537 5533 5529 5525 5522 5518 5515 5512 5509 5506 5504 5501 5498 5495 5492 5490 5487 5484 5481 5479 5477 5474 5473 5471 5470 5470 5469 5469 5469 5470 5470 5470 5471 5472 5473 5474 5476 5477 5479 5480 5481 5483 5485
5533 5529 5525 5522 5518 5514 5511 5508 5504 5502 5499 5496 5493 5490 5487 5485 5482 5479 5477 5474 5471 5469 5467 5465 5463 5462 5461 5461 5461 5461 5461 5461 5461 5461 5462 5463 5465 5466 5467 5469 5470 5471 5473 5474
5524 5520 5517 5513 5509 5506 5502 5499 5496 5494 5491 5488 5485 5483 5480 5477 5474 5472 5469 5466 5464 5462 5460 5458 5456 5455 5454 5453 5453 5452 5452 5452 5452 5452 5453 5454 5455 5456 5458 5459 5460 5461 5463 5464
5516 5512 5509 5505 5502 5498 5494 5491 5489 5486 5483 5480 5478 5475 5472 5470 5467 5464 5462 5459 5457 5454 5453 5451 5449 5448 5447 5446 5445 5445 5444 5444 5443 5444 5444 5445 5446 5447 5448 5449 5451 5452 5453 5455
5508 5504 5501 5497 5494 5490 5487 5484 5481 5478 5476 5473 5470 5467 5465 5462 5459 5457 5454 5452 5449 5447 5445 5444 5442 5441 5439 5438 5438 5437 5436 5436 5435 5435 5436 5436 5437 5437 5438 5440 5441 5443 5444 5445
5500 5496 5493 5490 5486 5483 5479 5476 5473 5471 5468 5465 5463 5460 5457 5454 5451 5449 5446 5444 5442 5440 5438 5436 5435 5433 5432 5431 5430 5429 5428 5428 5428 5428 5428 5428 5429 5429 5429 5431 5432 5433 5435 5436
5492 5489 5485 5482 5478 5475 5472 5469 5466 5463 5460 5458 5455 5452 5449 5447 5444 5441 5439 5436 5434 5432 5430 5429 5427 5425 5424 5423 5422 5421 5421 5420 5420 5420 5420 5421 5421 5421 5421 5422 5423 5424 5425 5426
5484 5481 5478 5474 5471 5467 5464 5461 5458 5455 5452 5450 5447 5445 5442 5439 5437 5434 5431 5429 5426 5424 5423 5421 5419 5417 5416 5415 5414 5413 5413 5413 5413 5413 5413 5413 5413 5414 5414 5414 5415 5415 5416 5417
5476 5473 5470 5466 5463 5459 5456 5453 5450 5447 5444 5442 5439 5437 5434 5431 5429 5426 5424 5421 5419 5417 5415 5413 5412 5410 5409 5408 5406 5406 5405 5405 5405 5405 5405 5405 5405 5405 5406 5406 5406 5407 5407 5408
5468 5465 5461 5458 5455 5451 5448 5445 5441 5439 5436 5434 5431 5429 5426 5423 5421 5418 5416 5414 5411 5410 5408 5406 5405 5403 5401 5400 5399 5398 5397 5397 5397 5397 5397 5397 5397 5397 5397 5398 5398 5398 5399 5399
5460 5456 5453 5450 5446 5443 5439 5436 5433 5430 5428 5425 5423 5420 5418 5415 5413 5410 5408 5406 5404 5402 5400 5399 5397 5395 5394 5392 5391 5390 5390 5389 5389 5388 5388 5388 5388 5389 5389 5389 5389 5390 5390 5390
5451 5448 5445 5441 5438 5434 5431 5428 5425 5422 5419 5417 5414 5412 5410 5407 5405 5402 5400 5398 5397 5395 5393 5391 5389 5388 5386 5385 5384 5383 5382 5381 5381 5380 5380 5380 5380 5380 5380 5380 5381 5381 5381 5382
5443 5439 5436 5433 5429 5426 5423 5420 5417 5414 5411 5408 5406 5404 5401 5399 5396 5394 5392 5390 5388 5387 5385 5384 5382 5380 5379 5378 5376 5375 5374 5373 5372 5372 5371 5371 5371 5371 5371 5371 5372 5372 5373 5373
5434 5430 5427 5424 5421 5417 5414 5411 5408 5406 5403 5400 5397 5395 5393 5390 5388 5386 5384 5382 5381 5379 5377 5376 5374 5373 5371 5370 5369 5368 5367 5366 5365 5363 5363 5362 5362 5362 5362 5363 5363 5364 5364 5365
5425 5422 5418 5415 5412 5409 5406 5403 5400 5397 5394 5392 5389 5386 5384 5382 5380 5378 5376 5374 5373 5371 5369 5368 5367 5365 5364 5363 5361 5360 5359 5358 5357 5356 5355 5354 5353 5353 5354 5354 5355 5356 5356 5356
5417 5413 5410 5407 5404 5401 5398 5395 5392 5389 5386 5383 5381 5378 5376 5374 5372 5370 5368 5366 5364 5363 5361 5360 5359 5357 5356 5355 5354 5352 5351 5350 5349 5348 5347 5346 5346 5346 5346 5346 5347 5347 5348 5348
5408 5405 5402 5399 5396 5393 5390 5387 5384 5381 5378 5375 5373 5370 5368 5366 5364 5362 5360 5358 5356 5355 5353 5352 5351 5350 5348 5347 5346 5345 5343 5342 5341 5341 5340 5339 5339 5338 5338 5339 5339 5339 5340 5340